Location: *
(33.8649°S, 62.1526°E)
Time: 13:13:40
(UTC+00:00)

MetOp-B - Pass Details

Date: 17 January 2021
Orbit: 819 x 822 km, 98.7° (Epoch: 04 March)

Event Time Altitude Azimuth Distance (km) Brightness Sun altitude
Rises 17:26:23 0° 165° (SSE) 3,387 7.8 -24.2°
Reaches altitude 10° 17:28:46 10° 162° (SSE) 2,447 7.0 -24.5°
Maximum altitude 17:34:11 71° 78° (ENE) 876 4.0 -25.2°
Enters shadow 17:34:27 69° 54° (NE) 884 4.0 -25.2°
